カタログに戻る

SL-16 DEB

運用中LEO
NORAD 22409·DEBRIS·🇷🇺 Russia

打ち上げ Dec 25, 1992 から Baikonur Cosmodrome

Loading…

次のパス (今後24時間)

TLE

最新Source: Space-Track

元期: Sep 14, 2026, 04:12 UTC

1 22409U 92093DA  26257.17516806  .00000618  00000-0  12415-3 0  9997
2 22409  71.1319 319.3675 0114794 178.5814 213.2956 14.61881540761746

AllMySatでSL-16 DEBをリアルタイム追跡

Download on the App Store